Satellite: MET-2/21
Catalog number: 22782
Epoch time:      06306.80567147
Element set:     658
Inclination:      082.5492 deg
RA of node:       221.4771 deg
Eccentricity:    0.0022894
Arg of perigee:   147.6328 deg
Mean anomaly:     212.6254 deg
Mean motion:   13.83609589 rev/day
Decay rate:       -1.9e-07 rev/day^2
Epoch rev:           66521
Checksum:              324

Satellite: OKEAN-4
Catalog number: 23317
Epoch time:      06305.71632859
Element set:    0094
Inclination:      082.5379 deg
RA of node:       148.7431 deg
Eccentricity:    0.0020774
Arg of perigee:   283.8436 deg
Mean anomaly:     076.0415 deg
Mean motion:   14.82415265 rev/day
Decay rate:       1.37e-06 rev/day^2
Epoch rev:           65035
Checksum:              305

Satellite: NOAA-14
Catalog number: 23455
Epoch time:      06305.96041482
Element set:    0353
Inclination:      099.0230 deg
RA of node:       005.5919 deg
Eccentricity:    0.0009584
Arg of perigee:   026.7656 deg
Mean anomaly:     333.4004 deg
Mean motion:   14.13673400 rev/day
Decay rate:       -5.4e-07 rev/day^2
Epoch rev:           61053
Checksum:              275

Satellite: SICH-1
Catalog number: 23657
Epoch time:      06305.66878549
Element set:    0896
Inclination:      082.5251 deg
RA of node:       289.6755 deg
Eccentricity:    0.0022239
Arg of perigee:   272.0085 deg
Mean anomaly:     087.8587 deg
Mean motion:   14.81405675 rev/day
Decay rate:       2.38e-06 rev/day^2
Epoch rev:           60234
Checksum:              343

Satellite: NOAA-15
Catalog number: 25338
Epoch time:      06305.82514961
Element set:    0727
Inclination:      098.5239 deg
RA of node:       304.0549 deg
Eccentricity:    0.0010397
Arg of perigee:   337.4415 deg
Mean anomaly:     022.6316 deg
Mean motion:   14.24608689 rev/day
Decay rate:        6.8e-07 rev/day^2
Epoch rev:           44031
Checksum:              306

Satellite: RESURS
Catalog number: 25394
Epoch time:      06305.71158430
Element set:    0508
Inclination:      098.4779 deg
RA of node:       003.8473 deg
Eccentricity:    0.0002044
Arg of perigee:   111.9427 deg
Mean anomaly:     248.1968 deg
Mean motion:   14.24115798 rev/day
Decay rate:     -.00000000 rev/day^2
Epoch rev:           43197
Checksum:              290

Satellite: FENGYUN1
Catalog number: 25730
Epoch time:      06305.96507334
Element set:    0864
Inclination:      098.6386 deg
RA of node:       293.3812 deg
Eccentricity:    0.0015274
Arg of perigee:   107.4754 deg
Mean anomaly:     252.8112 deg
Mean motion:   14.11817001 rev/day
Decay rate:        6.9e-07 rev/day^2
Epoch rev:           38545
Checksum:              297

Satellite: OKEAN-0
Catalog number: 25860
Epoch time:      06306.75192654
Element set:     891
Inclination:      097.7323 deg
RA of node:       314.6242 deg
Eccentricity:    0.0001761
Arg of perigee:   055.8989 deg
Mean anomaly:     304.2380 deg
Mean motion:   14.73399807 rev/day
Decay rate:        7.8e-07 rev/day^2
Epoch rev:           39215
Checksum:              322

Satellite: NOAA-16
Catalog number: 26536
Epoch time:      06305.86330176
Element set:    0117
Inclination:      099.0876 deg
RA of node:       274.2241 deg
Eccentricity:    0.0011251
Arg of perigee:   091.4214 deg
Mean anomaly:     268.8234 deg
Mean motion:   14.12378529 rev/day
Decay rate:      -1.35e-06 rev/day^2
Epoch rev:           31501
Checksum:              283

Satellite: NOAA-17
Catalog number: 27453
Epoch time:      06305.90869695
Element set:    0138
Inclination:      098.6089 deg
RA of node:       015.3556 deg
Eccentricity:    0.0012229
Arg of perigee:   038.6212 deg
Mean anomaly:     321.5820 deg
Mean motion:   14.23821901 rev/day
Decay rate:       -2.7e-07 rev/day^2
Epoch rev:           22637
Checksum:              303

Satellite: NOAA-18
Catalog number: 28654
Epoch time:      06305.91826546
Element set:    0700
Inclination:      098.8023 deg
RA of node:       246.3226 deg
Eccentricity:    0.0014006
Arg of perigee:   188.9579 deg
Mean anomaly:     171.1358 deg
Mean motion:   14.11003299 rev/day
Decay rate:       -3.0e-07 rev/day^2
Epoch rev:           07480
Checksum:              299

/EX
SB KEPS @ AMSAT  $ORB06306.M
Orbital Elements  06306.MISC

HR AMSAT ORBITAL ELEMENTS FOR MANNED AND MISCELLANEOUS SATELLITES
FROM WA5QGD FORT WORTH,TX November 2, 2006
Send SUBSCRIBE KEPS/UNSUBSCRIBE KEPS to majordomo at amsat.org only
BID: ORB06306.M
TO ALL RADIO AMATEURS BT

Satellite: HUBBLE
Catalog number: 20580
Epoch time:      06305.95044574
Element set:    0732
Inclination:      028.4687 deg
RA of node:       231.7855 deg
Eccentricity:    0.0003958
Arg of perigee:   203.7590 deg
Mean anomaly:     156.2815 deg
Mean motion:   15.00120972 rev/day
Decay rate:       5.35e-06 rev/day^2
Epoch rev:           70580
Checksum:              293

Satellite: UARS
Catalog number: 21701
Epoch time:      06305.92799370
Element set:    0915
Inclination:      056.9751 deg
RA of node:       218.1392 deg
Eccentricity:    0.0106181
Arg of perigee:   113.2522 deg
Mean anomaly:     247.9753 deg
Mean motion:   15.45164979 rev/day
Decay rate:      7.927e-05 rev/day^2
Epoch rev:           83058
Checksum:              323

Satellite: PO-34
Catalog number: 25520
Epoch time:      06305.93192940
Element set:    0604
Inclination:      028.4593 deg
RA of node:       189.5597 deg
Eccentricity:    0.0005026
Arg of perigee:   298.6388 deg
Mean anomaly:     061.3699 deg
Mean motion:   15.16826818 rev/day
Decay rate:       7.12e-06 rev/day^2
Epoch rev:           44298
Checksum:              341

Satellite: ISS
Catalog number: 25544
Epoch time:      06307.03084147
Element set:     980
Inclination:      051.6344 deg
RA of node:       191.9935 deg
Eccentricity:    0.0012779
Arg of perigee:   166.0519 deg
Mean anomaly:     336.4589 deg
Mean motion:   15.77580220 rev/day
Decay rate:     1.7952e-04 rev/day^2
Epoch rev:           45506
Checksum:              320

Satellite: OO-38
Catalog number: 26063
Epoch time:      06305.50646893
Element set:    0757
Inclination:      100.2021 deg
RA of node:       261.3352 deg
Eccentricity:    0.0037262
Arg of perigee:   080.5946 deg
Mean anomaly:     279.9442 deg
Mean motion:   14.35782452 rev/day
Decay rate:        9.0e-08 rev/day^2
Epoch rev:           35438
Checksum:              304

Satellite: NO-45
Catalog number: 26932
Epoch time:      06306.68329518
Element set:     447
Inclination:      067.0574 deg
RA of node:       010.6693 deg
Eccentricity:    0.0005027
Arg of perigee:   233.6719 deg
Mean anomaly:     126.3921 deg
Mean motion:   14.29538976 rev/day
Decay rate:       -2.1e-07 rev/day^2
Epoch rev:           26576
Checksum:              321

Satellite: UWE-1
Catalog number: 28892
Epoch time:      06306.76177241
Element set:     591
Inclination:      098.1462 deg
RA of node:       202.6135 deg
Eccentricity:    0.0018269
Arg of perigee:   097.3720 deg
Mean anomaly:     262.9572 deg
Mean motion:   14.59414584 rev/day
Decay rate:       2.57e-06 rev/day^2
Epoch rev:            5418
Checksum:              318

Satellite: CO-58
Catalog number: 28895
Epoch time:      06306.74808329
Element set:     575
Inclination:      098.1511 deg
RA of node:       202.7302 deg
Eccentricity:    0.0018927
Arg of perigee:   098.2549 deg
Mean anomaly:     262.0810 deg
Mean motion:   14.59464273 rev/day
Decay rate:       2.20e-06 rev/day^2
Epoch rev:            5406
Checksum:              316

Satellite: NCUBE2
Catalog number: 28897
Epoch time:      06305.27098195
Element set:    0142
Inclination:      098.1484 deg
RA of node:       201.2528 deg
Eccentricity:    0.0018004
Arg of perigee:   103.4026 deg
Mean anomaly:     256.9180 deg
Mean motion:   14.59620365 rev/day
Decay rate:       1.73e-06 rev/day^2
Epoch rev:           04612
Checksum:              286

/EX





More information about the Keps mailing list